{"data":{"norad_id":54743,"intl_designator":"2022-170C","name":"METEOSAT-12 (MTG-I1)","alt_names":[],"object_type":"PAYLOAD","status":"ACTIVE","operator":null,"country":"EUME","launch_date":"2022-12-13","launch_site_code":"FRGUI","launch_vehicle":null,"mission":null,"orbit_class":"UNKNOWN","rcs_meters":null,"size_class":null,"mass_kg":null,"dimensions":null,"purposes":["comms","earth_obs"],"wikipedia_slug":null,"has_3d_model":false,"image_url":null,"decayed_at":null,"tle_current":{"epoch":"2026-09-20T03:13:58.123200Z","epoch_age_seconds":46088,"freshness":"FRESH","line1":"1 54743U 22170C   26263.13470050 -.00000012  00000+0  00000+0 0  9996","line2":"2 54743   0.7364  19.9607 0003857  93.6974 293.4113  1.00272705 13931","mean_motion":1.00272705,"eccentricity":0.0003857,"inclination_deg":0.7364,"raan_deg":19.9607,"arg_perigee_deg":93.6974,"mean_anomaly_deg":293.4113,"bstar":0,"rev_number":1393,"period_min":1436.0837278699,"perigee_km":35770.074216123,"apogee_km":35802.599891408,"semimajor_km":42164.474053766,"source":"CELESTRAK","updated_at":"2026-09-20T09:00:35.309663Z"}}}